Szombathely, Hungary

8:46 PM CEST on March 29, 2017 (GMT +0200)
Szombathely

Weather History for LHSY - January, 2014

Change the Weather History Date:

Wednesday, January 8, 2014

  Actual Average Record
Temperature  
Mean Temperature 36 °F -  
Max Temperature 38 °F 36 °F - ()
Min Temperature 35 °F 24 °F - ()
Degree Days  
Heating Degree Days 28    
Moisture  
Dew Point 36 °F    
Average Humidity 97    
Maximum Humidity 100    
Minimum Humidity 94    
Precipitation  
Precipitation 0.00 in 0.04 in - ()
Sea Level Pressure  
Sea Level Pressure 30.29 in    
Wind  
Wind Speed 3 mph ()    
Max Wind Speed 7 mph    
Max Gust Speed -    
Visibility 0.4 miles    
Events Fog , Rain    
T = Trace of Precipitation, MM = Missing Value Source: Averaged Metar Reports

Daily Weather History Graph

Daily Weather History Graph

Search for Another Location

Airport or City:

Trip Planner

Search our weather history database for the weather conditions in past years. The results will help you decide how hot, cold, wet, or windy it might be!

Date:

Astronomy

Jan. 08, 2014 Rise Set
Actual Time 7:39 AM CET 4:21 PM CET
Civil Twilight 7:04 AM CET 4:56 PM CET
Nautical Twilight 6:25 AM CET 5:34 PM CET
Astronomical Twilight 5:48 AM CET 6:11 PM CET
Moon 11:18 AM CET (1/8) 12:09 AM CET (1/8)
Length of Visible Light 9h 52m
Length of Day
8h 42m
First Quarter, 53% of the Moon is Illuminated
Jan 8
First Quarter
Jan 16
Full
Jan 24
Last Quarter
Jan 30
New
Feb 6
First Quarter

Hourly Weather History & Observations

Time (CET) Temp. Dew Point Humidity Pressure Visibility Wind Dir Wind Speed Gust Speed Precip Events Conditions
12:00 AM 37 °F 36 °F 95% 30.27 in - South 2.2 mph - -  
1:00 AM 37 °F 36 °F 96% 30.27 in - SSW 2.2 mph - -  
2:00 AM 37 °F 36 °F 95% 30.26 in - SSW 4.5 mph - -  
3:00 AM 37 °F 36 °F 95% 30.26 in - SSW 4.5 mph - -  
4:00 AM 36 °F 36 °F 100% 30.26 in - SSW 4.5 mph - -  
5:00 AM 36 °F 36 °F 99% 30.26 in 0 mi WSW 4.5 mph - - Rain Light Drizzle
6:00 AM 36 °F 35 °F 96% 30.26 in 0 mi West 4.5 mph - - Rain Light Drizzle
7:00 AM 36 °F 35 °F 95% 30.26 in 0 mi NNW 2.2 mph - - Rain Light Drizzle
8:00 AM 36 °F 35 °F 95% 30.29 in 0 mi WNW 4.5 mph - - Rain Light Drizzle
9:00 AM 36 °F 35 °F 97% 30.32 in - NW 2.2 mph - -  
10:00 AM 37 °F 36 °F 96% 30.32 in 1 mi Calm Calm - - Rain Light Drizzle
11:00 AM 38 °F 37 °F 97% 30.32 in - Calm Calm - -  
12:00 PM 38 °F 38 °F 99% 30.30 in - South 2.2 mph - -  
1:00 PM 38 °F 38 °F 99% 30.30 in 1 mi SW 4.5 mph - -   Mist
2:00 PM 38 °F 38 °F 99% 30.29 in 1 mi South 4.5 mph - -   Mist
3:00 PM 39 °F 38 °F 94% 30.30 in 1 mi South 2.2 mph - -   Mist
4:00 PM 38 °F 37 °F 97% 30.30 in 0 mi SSW 4.5 mph - - Fog Partial Fog
5:00 PM 38 °F 37 °F 96% 30.30 in - SSW 4.5 mph - -  
6:00 PM 37 °F 37 °F 99% 30.30 in - SSW 4.5 mph - -  
7:00 PM 37 °F 36 °F 96% 30.30 in 0 mi SW 4.5 mph - - Rain Light Drizzle
8:00 PM 37 °F 36 °F 95% 30.31 in - SW 4.5 mph - -  
9:00 PM 35 °F 35 °F 99% 30.31 in - SSW 6.7 mph - -  
10:00 PM 35 °F 34 °F 95% 30.31 in - SSW 4.5 mph - -  
11:00 PM 35 °F 34 °F 95% 30.31 in - SW 4.5 mph - -